Weather History for K40B - April, 2014

Change the Weather History Date:

Thursday, April 3, 2014

  Actual Average Record
Temperature  
Mean Temperature 30 °F -  
Max Temperature 37 °F 37 °F 56 °F (2015)
Min Temperature 24 °F 18 °F 9 °F (2003)
Degree Days  
Heating Degree Days 35    
Moisture  
Dew Point 19 °F    
Average Humidity 65    
Maximum Humidity 90    
Minimum Humidity 39    
Precipitation  
Precipitation 0.00 in - - ()
Sea Level Pressure  
Sea Level Pressure 30.08 in    
Wind  
Wind Speed 2 mph (North)    
Max Wind Speed 7 mph    
Max Gust Speed 17 mph    
Averages and records for this station are not official NWS values.
T = Trace of Precipitation, MM = Missing Value Source: NWS Daily Summary

Daily Weather History Graph

Daily Weather History Graph

Search for Another Location

Airport or City:

Trip Planner

Search our weather history database for the weather conditions in past years. The results will help you decide how hot, cold, wet, or windy it might be!

Date:

Astronomy

Apr. 03, 2014 Rise Set
Actual Time 6:13 AM EDT 7:09 PM EDT
Civil Twilight 5:43 AM EDT 7:40 PM EDT
Nautical Twilight 5:06 AM EDT 8:17 PM EDT
Astronomical Twilight 4:27 AM EDT 8:56 PM EDT
Moon 8:28 AM EDT (4/3) 11:39 PM EDT (4/3)
Length of Visible Light 13h 57m
Length of Day
12h 56m
Waxing Crescent, 17% of the Moon is Illuminated
Apr 3
Waxing Crescent
Apr 7
First Quarter
Apr 15
Full
Apr 22
Last Quarter
Apr 29
New

Hourly Weather History & Observations

Time (EDT) Temp. Windchill Dew Point Humidity Pressure Visibility Wind Dir Wind Speed Gust Speed Precip Events Conditions
12:16 AM 28.2 °F - 23.5 °F 83% 30.03 in - Calm Calm - N/A   Unknown
1:16 AM 25.2 °F - 21.9 °F 87% 30.03 in - Calm Calm - 0.00 in   Unknown
2:16 AM 24.3 °F - 21.7 °F 90% 30.02 in - Calm Calm - N/A   Unknown
3:16 AM 26.1 °F - 22.8 °F 88% 30.01 in - Calm Calm - N/A   Unknown
4:16 AM 26.2 °F 22.1 °F 23.0 °F 88% 30.01 in - Variable 3.5 mph - 0.00 in   Unknown
5:16 AM 28.4 °F - 23.9 °F 83% 30.01 in - Calm Calm - N/A   Unknown
6:16 AM 29.7 °F 26.1 °F 25.0 °F 83% 30.03 in - Variable 3.5 mph - N/A   Unknown
7:16 AM 30.0 °F 26.5 °F 25.3 °F 83% 30.04 in - Variable 3.5 mph - N/A   Unknown
8:16 AM 30.7 °F - 21.6 °F 69% 30.06 in - Calm Calm - N/A   Unknown
9:16 AM 31.3 °F 26.6 °F 16.7 °F 55% 30.07 in - Variable 4.6 mph 13.8 mph N/A   Unknown
10:16 AM 32.9 °F 27.5 °F 15.4 °F 49% 30.07 in - Variable 5.8 mph 15.0 mph N/A   Unknown
11:16 AM 36.0 °F 32.1 °F 13.3 °F 39% 30.07 in - Variable 4.6 mph 16.1 mph N/A   Unknown
12:16 PM 35.8 °F 30.9 °F 15.1 °F 43% 30.08 in - Variable 5.8 mph 13.8 mph N/A   Unknown
1:16 PM 35.2 °F 29.5 °F 18.3 °F 50% 30.09 in - Variable 6.9 mph 17.3 mph N/A   Unknown
2:16 PM 36.7 °F 32.0 °F 20.3 °F 52% 30.08 in - Variable 5.8 mph 17.3 mph N/A   Unknown
3:16 PM 34.5 °F 30.4 °F 19.4 °F 54% 30.09 in - Variable 4.6 mph 13.8 mph N/A   Unknown
4:16 PM 34.5 °F 30.4 °F 19.6 °F 54% 30.10 in - Variable 4.6 mph - N/A   Unknown
5:16 PM 34.3 °F - 17.8 °F 51% 30.11 in - Variable 2.3 mph - N/A   Unknown
6:16 PM 33.3 °F 30.2 °F 17.4 °F 52% 30.13 in - Variable 3.5 mph - N/A   Unknown
7:16 PM 31.3 °F 26.6 °F 17.6 °F 57% 30.15 in - Variable 4.6 mph - N/A   Unknown
8:16 PM 29.7 °F - 16.7 °F 59% 30.16 in - Calm Calm - N/A   Unknown
9:16 PM 28.4 °F - 16.3 °F 61% 30.15 in - Calm Calm - 0.00 in   Unknown
10:16 PM 27.5 °F - 15.8 °F 61% 30.16 in - Variable 2.3 mph 12.7 mph N/A   Unknown